Weather in Novoye Nikulino

Russia / Ulyanovsk Oblast     54°26′24″N   47°41′08″E
temp.,
°C
wind,
m/s
gust,
m/s
humid.,
%
clouds,
%
prec.,
mm/h
press.,
hPa
HPBL,
m
22 october, fri
fri2201:00+9wsw71687100 0.0 1002491
04:00+9wsw71683100 0.0 1002500
07:00+9sw81782100 0.0 1001507
10:00+10wsw91775100 0.0 1000752
13:00+11wsw91664100 0.0 1000818
16:00+11wsw91668100 0.0 1001865
19:00+10wsw9177689 0.0 1003785
22:00+10wsw91578100 0.0 10051044
23 october, sat
sat2301:00+9wsw715820 0.0 1006705
04:00+8sw614850 0.0 1007509
07:00+7sw613850 0.0 1008514
10:00+8sw713735 0.0 1009891
13:00+11wsw814515 0.0 10101638
16:00+11wsw7124842 0.0 10101508
19:00+9sw51154100 0.0 1011300
22:00+8wsw71076100 0.3 1010661
24 october, sun
sun2401:00+8ssw478395 5.6 1009330
04:00+6w511865 5.6 1009461
07:00+4wsw511845 0.0 1010432
10:00+4wsw712829 0.0 1011676
13:00+6w796428 0.0 10111134
16:00+6wsw6961100 0.0 10121416
19:00+5wsw496783 0.0 1013576
22:00+3wsw47865 0.0 1013316
25 october, mon
mon2501:00+2wsw2493100 0.0 101493
04:00+2w2494100 0.0 1014127
07:00+2nw3692100 0.0 1015373
10:00+2nw578279 0.0 1016501
13:00+4nnw687196 0.1 10171068
16:00+2nnw81072100 0.3 10201138
19:00+1n712635 0.0 10231167
22:00−1nnw612725 0.0 1024670
26 october, tue
tue2601:00−1nnw5107539 0.0 1026471
04:00−2nw497656 0.0 1027378
07:00−2w3777100 0.0 1027239
10:000w596459 0.0 1027401
13:00+3w69475 0.0 1025680
16:00+3wsw6115057 0.0 1023706
19:00+1wsw6146032 0.0 1023428
22:00+1wsw6146346 0.0 1022380